Time,TemperatureF,DewpointF,PressureIn,WindDirection,WindDirectionDegrees,WindSpeedMPH,WindSpeedGustMPH,Humidity,HourlyPrecipIn,Conditions,Clouds,dailyrainin,SolarRadiationWatts/m^2,SoftwareType,DateUTC
2013-07-20 00:01:00,61.6,57.0,30.32,SSW,205,6.9,6.9,85,0.00,CLR,,0.00,0.0,WeatherDisplay:10.37,2013-07-19 23:01:00,
2013-07-20 00:06:00,61.5,57.3,30.33,SSW,208,3.5,3.5,86,0.00,CLR,,0.00,0.0,WeatherDisplay:10.37,2013-07-19 23:06:00,
2013-07-20 00:12:00,61.3,57.1,30.33,SSW,198,3.5,3.5,86,0.00,CLR,,0.00,0.0,WeatherDisplay:10.37,2013-07-19 23:12:00,
2013-07-20 00:17:00,61.2,57.0,30.32,SW,219,3.5,3.5,86,0.00,CLR,,0.00,0.0,WeatherDisplay:10.37,2013-07-19 23:17:00,
2013-07-20 00:22:00,61.2,57.0,30.33,NNW,344,3.5,3.5,86,0.00,CLR,,0.00,0.0,WeatherDisplay:10.37,2013-07-19 23:22:00,
2013-07-20 00:27:00,61.0,57.1,30.33,SSW,210,4.6,4.6,87,0.00,CLR,,0.00,0.0,WeatherDisplay:10.37,2013-07-19 23:27:00,
2013-07-20 00:32:00,60.9,57.0,30.33,SSW,209,5.8,5.8,87,0.00,CLR,,0.00,0.0,WeatherDisplay:10.37,2013-07-19 23:32:00,
2013-07-20 00:37:00,60.7,56.8,30.33,SW,224,3.5,3.5,87,0.00,CLR,,0.00,0.0,WeatherDisplay:10.37,2013-07-19 23:37:00,
2013-07-20 00:43:00,60.7,57.1,30.33,SW,222,2.3,2.3,88,0.00,CLR,,0.00,0.0,WeatherDisplay:10.37,2013-07-19 23:43:00,
2013-07-20 00:48:00,60.5,56.9,30.33,SW,222,3.5,3.5,88,0.00,CLR,,0.00,0.0,WeatherDisplay:10.37,2013-07-19 23:48:00,
2013-07-20 00:53:00,60.4,56.8,30.33,SW,224,3.5,3.5,88,0.00,CLR,,0.00,0.0,WeatherDisplay:10.37,2013-07-19 23:53:00,
2013-07-20 00:58:00,60.2,56.6,30.33,SSW,209,1.2,1.2,88,0.00,CLR,,0.00,0.0,WeatherDisplay:10.37,2013-07-19 23:58:00,
2013-07-20 01:03:00,60.1,56.5,30.33,SSW,210,2.3,2.3,88,0.00,CLR,,0.00,0.0,WeatherDisplay:10.37,2013-07-20 00:03:00,
2013-07-20 01:08:00,59.9,56.6,30.33,SSW,199,1.2,1.2,89,0.00,CLR,,0.00,0.0,WeatherDisplay:10.37,2013-07-20 00:08:00,
2013-07-20 01:13:00,59.8,56.6,30.33,SW,227,1.2,1.2,89,0.00,CLR,,0.00,0.0,WeatherDisplay:10.37,2013-07-20 00:13:00,
2013-07-20 01:19:00,59.6,56.4,30.33,SW,220,0.0,0.0,89,0.00,CLR,,0.00,0.0,WeatherDisplay:10.37,2013-07-20 00:19:00,
2013-07-20 01:24:00,59.5,56.3,30.33,SW,226,2.3,2.3,89,0.00,CLR,,0.00,0.0,WeatherDisplay:10.37,2013-07-20 00:24:00,
2013-07-20 01:29:00,59.3,56.1,30.33,SSW,212,2.3,2.3,89,0.00,CLR,,0.00,0.0,WeatherDisplay:10.37,2013-07-20 00:29:00,
2013-07-20 01:34:00,59.2,56.0,30.33,SW,224,3.5,3.5,89,0.00,CLR,,0.00,0.0,WeatherDisplay:10.37,2013-07-20 00:34:00,
2013-07-20 01:39:00,59.0,56.1,30.33,SW,220,2.3,2.3,90,0.00,CLR,,0.00,0.0,WeatherDisplay:10.37,2013-07-20 00:39:00,
2013-07-20 01:44:00,58.9,56.0,30.33,SW,229,0.0,0.0,90,0.00,CLR,,0.00,0.0,WeatherDisplay:10.37,2013-07-20 00:44:00,
2013-07-20 01:49:00,58.9,56.0,30.33,SW,219,0.0,0.0,90,0.00,CLR,,0.00,0.0,WeatherDisplay:10.37,2013-07-20 00:49:00,
2013-07-20 01:54:00,58.7,55.8,30.33,SW,232,0.0,0.0,90,0.00,CLR,,0.00,0.0,WeatherDisplay:10.37,2013-07-20 00:54:00,
2013-07-20 01:59:00,58.6,56.0,30.33,SW,220,2.0,2.0,91,0.00,CLR,,0.00,0.0,WeatherDisplay:10.37,2013-07-20 00:59:00,
2013-07-20 02:05:00,58.6,56.0,30.33,SSW,206,2.0,2.0,91,0.00,CLR,,0.00,0.0,WeatherDisplay:10.37,2013-07-20 01:05:00,
2013-07-20 02:10:00,58.6,56.0,30.33,SW,232,2.3,2.3,91,0.00,CLR,,0.00,0.0,WeatherDisplay:10.37,2013-07-20 01:10:00,
2013-07-20 02:15:00,58.4,56.1,30.33,SW,224,1.0,0.0,92,0.00,CLR,,0.00,0.0,WeatherDisplay:10.37,2013-07-20 01:15:00,
2013-07-20 02:20:00,58.4,56.1,30.33,SW,217,1.2,1.2,92,0.00,CLR,,0.00,0.0,WeatherDisplay:10.37,2013-07-20 01:20:00,
2013-07-20 02:25:00,58.3,56.0,30.33,SW,216,0.0,0.0,92,0.00,CLR,,0.00,0.0,WeatherDisplay:10.37,2013-07-20 01:25:00,
2013-07-20 02:30:00,58.3,56.0,30.33,SW,217,1.2,1.2,92,0.00,CLR,,0.00,0.0,WeatherDisplay:10.37,2013-07-20 01:30:00,
2013-07-20 02:35:00,58.1,55.8,30.33,SSW,209,1.2,1.2,92,0.00,CLR,,0.00,0.0,WeatherDisplay:10.37,2013-07-20 01:35:00,
2013-07-20 02:41:00,58.1,56.1,30.33,SSW,205,2.3,2.3,93,0.00,CLR,,0.00,0.0,WeatherDisplay:10.37,2013-07-20 01:41:00,
2013-07-20 02:46:00,58.1,56.1,30.33,South,176,3.5,3.5,93,0.00,CLR,,0.00,0.0,WeatherDisplay:10.37,2013-07-20 01:46:00,
2013-07-20 02:51:00,58.1,56.1,30.33,SSW,200,0.0,0.0,93,0.00,CLR,,0.00,0.0,WeatherDisplay:10.37,2013-07-20 01:51:00,
2013-07-20 02:56:00,58.0,56.0,30.33,SSW,193,0.0,0.0,93,0.00,CLR,,0.00,0.0,WeatherDisplay:10.37,2013-07-20 01:56:00,
2013-07-20 03:01:00,57.8,55.8,30.33,SSW,196,0.0,0.0,93,0.00,CLR,,0.00,0.0,WeatherDisplay:10.37,2013-07-20 02:01:00,
2013-07-20 03:06:00,57.5,55.5,30.33,SSW,198,0.0,0.0,93,0.00,CLR,,0.00,0.0,WeatherDisplay:10.37,2013-07-20 02:06:00,
2013-07-20 03:11:00,57.3,55.3,30.33,South,188,1.2,1.2,93,0.00,CLR,,0.00,0.0,WeatherDisplay:10.37,2013-07-20 02:11:00,
2013-07-20 03:16:00,57.2,55.5,30.33,SSW,213,2.3,2.3,94,0.00,CLR,,0.00,0.0,WeatherDisplay:10.37,2013-07-20 02:16:00,
2013-07-20 03:21:00,57.2,55.5,30.33,SSW,208,2.3,2.3,94,0.00,CLR,,0.00,0.0,WeatherDisplay:10.37,2013-07-20 02:21:00,
2013-07-20 03:26:00,57.2,55.5,30.33,SSW,202,0.0,1.0,94,0.00,CLR,,0.00,0.0,WeatherDisplay:10.37,2013-07-20 02:26:00,
2013-07-20 03:32:00,57.0,55.3,30.33,SW,223,2.3,2.3,94,0.00,CLR,,0.00,0.0,WeatherDisplay:10.37,2013-07-20 02:32:00,
2013-07-20 03:37:00,57.2,55.8,30.33,SW,229,2.3,2.3,95,0.00,CLR,,0.00,0.0,WeatherDisplay:10.37,2013-07-20 02:37:00,
2013-07-20 03:42:00,57.5,56.1,30.33,SW,224,3.5,3.5,95,0.00,CLR,,0.00,0.0,WeatherDisplay:10.37,2013-07-20 02:42:00,
2013-07-20 03:47:00,57.6,56.2,30.33,SW,217,3.5,3.5,95,0.00,CLR,,0.00,0.0,WeatherDisplay:10.37,2013-07-20 02:47:00,
2013-07-20 03:52:00,57.8,56.7,30.33,SSW,200,4.6,4.6,96,0.00,CLR,,0.00,0.0,WeatherDisplay:10.37,2013-07-20 02:52:00,
2013-07-20 03:57:00,58.0,56.9,30.33,WSW,244,6.9,6.9,96,0.00,CLR,,0.00,0.0,WeatherDisplay:10.37,2013-07-20 02:57:00,
2013-07-20 04:02:00,58.0,56.9,30.33,SSW,200,4.6,4.6,96,0.00,CLR,,0.00,0.0,WeatherDisplay:10.37,2013-07-20 03:02:00,
2013-07-20 04:08:00,58.1,57.0,30.33,SW,230,3.5,3.5,96,0.00,CLR,,0.00,0.0,WeatherDisplay:10.37,2013-07-20 03:08:00,
2013-07-20 04:13:00,58.1,57.0,30.33,SSW,210,3.5,3.5,96,0.00,CLR,,0.00,0.0,WeatherDisplay:10.37,2013-07-20 03:13:00,
2013-07-20 04:18:00,58.1,57.0,30.33,SW,232,2.3,2.3,96,0.00,CLR,,0.00,0.0,WeatherDisplay:10.37,2013-07-20 03:18:00,
2013-07-20 04:23:00,58.1,57.3,30.33,WSW,239,3.5,3.5,97,0.00,CLR,,0.00,0.0,WeatherDisplay:10.37,2013-07-20 03:23:00,
2013-07-20 04:28:00,58.1,57.3,30.33,SW,230,3.5,3.5,97,0.00,CLR,,0.00,0.0,WeatherDisplay:10.37,2013-07-20 03:28:00,
2013-07-20 04:33:00,58.0,57.2,30.33,SW,216,3.5,3.5,97,0.00,CLR,,0.00,0.0,WeatherDisplay:10.37,2013-07-20 03:33:00,
2013-07-20 04:38:00,58.0,57.2,30.33,SW,233,3.5,3.5,97,0.00,CLR,,0.00,0.0,WeatherDisplay:10.37,2013-07-20 03:38:00,
2013-07-20 04:43:00,57.8,57.0,30.33,WSW,247,3.5,3.5,97,0.00,CLR,,0.00,0.0,WeatherDisplay:10.37,2013-07-20 03:43:00,
2013-07-20 04:49:00,57.8,57.0,30.33,West,261,4.6,4.6,97,0.00,CLR,,0.00,0.0,WeatherDisplay:10.37,2013-07-20 03:49:00,
2013-07-20 04:54:00,57.8,57.0,30.33,West,260,8.1,8.1,97,0.00,CLR,,0.00,0.0,WeatherDisplay:10.37,2013-07-20 03:54:00,
2013-07-20 04:59:00,57.8,57.0,30.33,WSW,246,2.3,2.3,97,0.00,CLR,,0.00,5.0,WeatherDisplay:10.37,2013-07-20 03:59:00,
2013-07-20 05:01:00,57.8,57.0,30.33,WSW,244,5.8,5.8,97,0.00,OVC,,0.00,5.0,WeatherDisplay:10.37,2013-07-20 04:01:00,
2013-07-20 05:02:00,57.8,57.0,30.33,WSW,256,4.6,4.6,97,0.00,OVC,,0.00,5.0,WeatherDisplay:10.37,2013-07-20 04:02:00,
2013-07-20 05:04:00,57.8,57.0,30.33,WSW,247,5.0,5.0,97,0.00,OVC,,0.00,5.0,WeatherDisplay:10.37,2013-07-20 04:04:00,
2013-07-20 05:09:00,57.6,56.8,30.33,WSW,257,4.6,4.6,97,0.00,OVC,,0.00,5.0,WeatherDisplay:10.37,2013-07-20 04:09:00,
2013-07-20 05:14:00,57.6,56.8,30.33,WSW,241,7.0,7.0,97,0.00,FEW,,0.00,7.0,WeatherDisplay:10.37,2013-07-20 04:14:00,
2013-07-20 05:19:00,57.6,56.8,30.33,WSW,239,3.5,3.5,97,0.00,BKN,,0.00,7.0,WeatherDisplay:10.37,2013-07-20 04:19:00,
2013-07-20 05:25:00,57.6,56.8,30.33,SSW,213,4.6,4.6,97,0.00,BKN,,0.00,9.0,WeatherDisplay:10.37,2013-07-20 04:25:00,
2013-07-20 05:30:00,57.6,56.8,30.33,SSW,210,1.0,6.0,97,0.00,OVC,,0.00,11.0,WeatherDisplay:10.37,2013-07-20 04:30:00,
2013-07-20 05:35:00,57.6,56.8,30.33,South,186,2.3,2.3,97,0.00,OVC,,0.00,11.0,WeatherDisplay:10.37,2013-07-20 04:35:00,
2013-07-20 05:40:00,57.6,56.8,30.33,South,186,3.5,3.5,97,0.00,OVC,,0.00,12.0,WeatherDisplay:10.37,2013-07-20 04:40:00,
2013-07-20 05:45:00,57.6,56.8,30.33,South,178,2.3,2.3,97,0.00,OVC,,0.00,14.0,WeatherDisplay:10.37,2013-07-20 04:45:00,
2013-07-20 05:51:00,57.6,56.8,30.33,SW,233,2.3,2.3,97,0.00,OVC,,0.00,14.0,WeatherDisplay:10.37,2013-07-20 04:51:00,
2013-07-20 05:56:00,57.6,56.8,30.33,SW,229,2.3,2.3,97,0.00,OVC,,0.00,18.0,WeatherDisplay:10.37,2013-07-20 04:56:00,
2013-07-20 06:01:00,57.6,56.8,30.33,SW,216,3.5,3.5,97,0.00,OVC,,0.00,21.0,WeatherDisplay:10.37,2013-07-20 05:01:00,
2013-07-20 06:06:00,57.6,56.8,30.33,SSW,208,4.6,4.6,97,0.00,OVC,,0.00,26.0,WeatherDisplay:10.37,2013-07-20 05:06:00,
2013-07-20 06:11:00,57.6,56.8,30.33,SW,227,4.6,4.6,97,0.00,OVC,,0.00,26.0,WeatherDisplay:10.37,2013-07-20 05:11:00,
2013-07-20 06:17:00,57.6,56.8,30.33,SW,226,3.5,3.5,97,0.00,OVC,,0.00,32.0,WeatherDisplay:10.37,2013-07-20 05:17:00,
2013-07-20 06:22:00,57.6,56.8,30.33,SSW,192,3.5,3.5,97,0.00,OVC,,0.00,37.0,WeatherDisplay:10.37,2013-07-20 05:22:00,
2013-07-20 06:27:00,57.6,56.8,30.33,South,182,6.0,6.0,97,0.00,OVC,,0.00,35.0,WeatherDisplay:10.37,2013-07-20 05:27:00,
2013-07-20 06:32:00,57.6,56.8,30.32,SSW,202,4.6,4.6,97,0.00,OVC,,0.00,37.0,WeatherDisplay:10.37,2013-07-20 05:32:00,
2013-07-20 06:37:00,57.6,56.8,30.32,SSW,202,4.6,4.6,97,0.00,OVC,,0.00,37.0,WeatherDisplay:10.37,2013-07-20 05:37:00,
2013-07-20 06:42:00,57.6,56.8,30.32,SSW,200,4.6,4.6,97,0.00,OVC,,0.00,42.0,WeatherDisplay:10.37,2013-07-20 05:42:00,
2013-07-20 06:47:00,57.6,56.8,30.32,SSW,209,3.5,3.5,97,0.00,OVC,,0.00,58.0,WeatherDisplay:10.37,2013-07-20 05:47:00,
2013-07-20 06:53:00,57.6,56.8,30.33,SW,222,3.5,3.5,97,0.00,OVC,,0.00,58.0,WeatherDisplay:10.37,2013-07-20 05:53:00,
2013-07-20 06:58:00,57.8,57.0,30.32,South,186,5.8,5.8,97,0.00,OVC,,0.00,60.0,WeatherDisplay:10.37,2013-07-20 05:58:00,
2013-07-20 07:03:00,57.8,57.0,30.33,SW,226,2.3,2.3,97,0.00,OVC,,0.00,67.0,WeatherDisplay:10.37,2013-07-20 06:03:00,
2013-07-20 07:08:00,57.8,57.0,30.32,SW,223,4.6,4.6,97,0.00,OVC,,0.00,74.0,WeatherDisplay:10.37,2013-07-20 06:08:00,
2013-07-20 07:13:00,58.0,57.2,30.32,SW,227,3.5,3.5,97,0.00,BKN,,0.00,83.0,WeatherDisplay:10.37,2013-07-20 06:13:00,
2013-07-20 07:18:00,58.1,57.3,30.32,SSW,203,3.5,3.5,97,0.00,OVC,,0.00,84.0,WeatherDisplay:10.37,2013-07-20 06:18:00,
2013-07-20 07:23:00,58.1,57.3,30.33,SW,215,4.6,4.6,97,0.00,BKN,,0.00,95.0,WeatherDisplay:10.37,2013-07-20 06:23:00,
2013-07-20 07:28:00,58.3,57.2,30.33,South,184,3.5,3.5,96,0.00,BKN,,0.00,114.0,WeatherDisplay:10.37,2013-07-20 06:28:00,
2013-07-20 07:33:00,58.4,57.3,30.32,SSW,208,8.1,8.1,96,0.00,BKN,,0.00,121.0,WeatherDisplay:10.37,2013-07-20 06:33:00,
2013-07-20 07:38:00,58.4,57.3,30.32,South,182,5.8,5.8,96,0.00,BKN,,0.00,113.0,WeatherDisplay:10.37,2013-07-20 06:38:00,
2013-07-20 07:43:00,58.6,57.5,30.33,South,182,5.8,5.8,96,0.00,BKN,,0.00,135.0,WeatherDisplay:10.37,2013-07-20 06:43:00,
2013-07-20 07:49:00,58.7,57.6,30.32,SSW,210,5.0,5.0,96,0.00,BKN,,0.00,116.0,WeatherDisplay:10.37,2013-07-20 06:49:00,
2013-07-20 07:54:00,58.9,57.8,30.32,SSW,199,6.0,6.0,96,0.00,BKN,,0.00,125.0,WeatherDisplay:10.37,2013-07-20 06:54:00,
2013-07-20 07:59:00,58.9,57.5,30.32,SSW,198,6.9,6.9,95,0.00,BKN,,0.00,150.0,WeatherDisplay:10.37,2013-07-20 06:59:00,
2013-07-20 08:04:00,59.2,57.8,30.32,SSW,212,3.5,3.5,95,0.00,BKN,,0.00,150.0,WeatherDisplay:10.37,2013-07-20 07:04:00,
2013-07-20 08:09:00,59.5,57.5,30.32,SSW,208,5.8,5.8,93,0.00,SCT,,0.00,222.0,WeatherDisplay:10.37,2013-07-20 07:09:00,
2013-07-20 08:14:00,59.8,57.8,30.32,SW,216,3.5,3.5,93,0.00,BKN,,0.00,178.0,WeatherDisplay:10.37,2013-07-20 07:14:00,
2013-07-20 08:19:00,59.9,57.3,30.32,WSW,240,3.5,3.5,91,0.00,SCT,,0.00,209.0,WeatherDisplay:10.37,2013-07-20 07:19:00,
2013-07-20 08:24:00,60.5,57.6,30.32,SW,232,5.8,5.8,90,0.00,SCT,,0.00,222.0,WeatherDisplay:10.37,2013-07-20 07:24:00,
2013-07-20 08:29:00,61.3,58.0,30.32,SW,233,5.0,5.0,89,0.00,CLR,,0.00,396.0,WeatherDisplay:10.37,2013-07-20 07:29:00,
2013-07-20 08:34:00,61.8,57.6,30.32,SSW,212,6.9,6.9,86,0.00,CLR,,0.00,394.0,WeatherDisplay:10.37,2013-07-20 07:34:00,
2013-07-20 08:40:00,62.4,58.2,30.32,WSW,239,4.6,4.6,86,0.00,CLR,,0.00,399.0,WeatherDisplay:10.37,2013-07-20 07:40:00,
2013-07-20 08:45:00,62.9,58.3,30.32,SSW,210,2.0,8.0,85,0.00,BKN,,0.00,227.0,WeatherDisplay:10.37,2013-07-20 07:45:00,
2013-07-20 08:50:00,63.1,58.2,30.32,SSW,208,5.8,5.8,84,0.00,CLR,,0.00,494.0,WeatherDisplay:10.37,2013-07-20 07:50:00,
2013-07-20 08:55:00,64.0,58.7,30.32,South,172,4.6,4.6,83,0.00,CLR,,0.00,433.0,WeatherDisplay:10.37,2013-07-20 07:55:00,
2013-07-20 09:00:00,64.3,58.3,30.32,SSW,213,6.9,6.9,81,0.00,CLR,,0.00,489.0,WeatherDisplay:10.37,2013-07-20 08:00:00,
2013-07-20 09:05:00,64.8,58.8,30.33,SW,232,3.5,3.5,81,0.00,CLR,,0.00,496.0,WeatherDisplay:10.37,2013-07-20 08:05:00,
2013-07-20 09:11:00,64.8,58.5,30.33,SSW,203,6.0,6.0,80,0.00,FEW,,0.00,406.0,WeatherDisplay:10.37,2013-07-20 08:11:00,
2013-07-20 09:16:00,64.7,58.7,30.33,SSW,196,4.6,4.6,81,0.00,CLR,,0.00,509.0,WeatherDisplay:10.37,2013-07-20 08:16:00,
2013-07-20 09:21:00,65.0,58.7,30.33,SSW,213,6.9,6.9,80,0.00,CLR,,0.00,512.0,WeatherDisplay:10.37,2013-07-20 08:21:00,
2013-07-20 09:26:00,65.6,58.9,30.33,NNW,336,4.6,4.6,79,0.00,FEW,,0.00,512.0,WeatherDisplay:10.37,2013-07-20 08:26:00,
2013-07-20 09:31:00,65.3,59.0,30.33,South,175,4.6,4.6,80,0.00,OVC,,0.00,514.0,WeatherDisplay:10.37,2013-07-20 08:31:00,
2013-07-20 09:36:00,66.1,59.4,30.33,WSW,257,5.8,5.8,79,0.00,FEW,,0.00,526.0,WeatherDisplay:10.37,2013-07-20 08:36:00,
2013-07-20 09:41:00,66.9,59.5,30.33,SW,227,6.0,6.0,77,0.00,FEW,,0.00,542.0,WeatherDisplay:10.37,2013-07-20 08:41:00,
2013-07-20 09:46:00,67.3,59.8,30.32,SSW,213,4.6,4.6,77,0.00,FEW,,0.00,551.0,WeatherDisplay:10.37,2013-07-20 08:46:00,
2013-07-20 09:52:00,67.1,59.3,30.33,WSW,239,4.6,4.6,76,0.00,FEW,,0.00,565.0,WeatherDisplay:10.37,2013-07-20 08:52:00,
2013-07-20 09:57:00,67.6,59.8,30.32,SSW,198,5.8,5.8,76,0.00,FEW,,0.00,574.0,WeatherDisplay:10.37,2013-07-20 08:57:00,
2013-07-20 10:02:00,67.9,60.1,30.32,SW,236,4.6,4.6,76,0.00,FEW,,0.00,588.0,WeatherDisplay:10.37,2013-07-20 09:02:00,
2013-07-20 10:07:00,68.3,59.7,30.32,SW,236,4.6,4.6,74,0.00,FEW,,0.00,588.0,WeatherDisplay:10.37,2013-07-20 09:07:00,
2013-07-20 10:12:00,68.8,60.2,30.32,WSW,244,3.5,3.5,74,0.00,FEW,,0.00,593.0,WeatherDisplay:10.37,2013-07-20 09:12:00,
2013-07-20 10:18:00,68.6,60.0,30.32,SSW,209,1.2,1.2,74,0.00,FEW,,0.00,591.0,WeatherDisplay:10.37,2013-07-20 09:18:00,
2013-07-20 10:23:00,68.4,60.2,30.32,SSW,195,6.9,6.9,75,0.00,FEW,,0.00,618.0,WeatherDisplay:10.37,2013-07-20 09:23:00,
2013-07-20 10:28:00,68.9,60.3,30.32,SW,230,4.6,4.6,74,0.00,FEW,,0.00,626.0,WeatherDisplay:10.37,2013-07-20 09:28:00,
2013-07-20 10:33:00,69.6,60.6,30.32,SSW,198,5.8,5.8,73,0.00,FEW,,0.00,635.0,WeatherDisplay:10.37,2013-07-20 09:33:00,
2013-07-20 10:38:00,69.6,60.9,30.32,SW,217,3.5,3.5,74,0.00,FEW,,0.00,646.0,WeatherDisplay:10.37,2013-07-20 09:38:00,
2013-07-20 10:43:00,70.1,60.3,30.32,North,352,3.5,3.5,71,0.00,FEW,,0.00,653.0,WeatherDisplay:10.37,2013-07-20 09:43:00,
2013-07-20 10:48:00,70.9,61.0,30.32,South,171,5.8,5.8,71,0.00,FEW,,0.00,672.0,WeatherDisplay:10.37,2013-07-20 09:48:00,
2013-07-20 10:54:00,70.9,61.0,30.32,WSW,257,5.8,5.8,71,0.00,FEW,,0.00,679.0,WeatherDisplay:10.37,2013-07-20 09:54:00,
2013-07-20 10:59:00,70.8,60.9,30.32,South,188,4.6,4.6,71,0.00,FEW,,0.00,681.0,WeatherDisplay:10.37,2013-07-20 09:59:00,
2013-07-20 11:04:00,71.3,61.4,30.32,SW,216,5.0,5.0,71,0.00,FEW,,0.00,683.0,WeatherDisplay:10.37,2013-07-20 10:04:00,
2013-07-20 11:09:00,71.1,61.2,30.32,WSW,237,6.9,6.9,71,0.00,FEW,,0.00,693.0,WeatherDisplay:10.37,2013-07-20 10:09:00,
2013-07-20 11:14:00,70.9,61.8,30.32,West,265,4.6,4.6,73,0.00,FEW,,0.00,686.0,WeatherDisplay:10.37,2013-07-20 10:14:00,
2013-07-20 11:19:00,72.0,61.3,30.31,SSW,205,2.3,2.3,69,0.00,FEW,,0.00,695.0,WeatherDisplay:10.37,2013-07-20 10:19:00,
2013-07-20 11:24:00,72.5,61.7,30.31,SW,224,4.6,4.6,69,0.00,FEW,,0.00,713.0,WeatherDisplay:10.37,2013-07-20 10:24:00,
2013-07-20 11:30:00,73.0,61.8,30.31,WSW,248,5.8,5.8,68,0.00,FEW,,0.00,720.0,WeatherDisplay:10.37,2013-07-20 10:30:00,
2013-07-20 11:35:00,73.0,61.8,30.31,SSW,205,4.6,4.6,68,0.00,FEW,,0.00,732.0,WeatherDisplay:10.37,2013-07-20 10:35:00,
2013-07-20 11:40:00,73.0,61.8,30.31,SW,226,6.9,6.9,68,0.00,FEW,,0.00,734.0,WeatherDisplay:10.37,2013-07-20 10:40:00,
2013-07-20 11:45:00,72.7,61.9,30.31,SSW,208,6.0,6.0,69,0.00,FEW,,0.00,730.0,WeatherDisplay:10.37,2013-07-20 10:45:00,
2013-07-20 11:50:00,73.2,62.4,30.30,SW,223,8.0,8.0,69,0.00,FEW,,0.00,743.0,WeatherDisplay:10.37,2013-07-20 10:50:00,
2013-07-20 11:55:00,73.9,62.2,30.30,SSW,199,2.3,2.3,67,0.00,FEW,,0.00,744.0,WeatherDisplay:10.37,2013-07-20 10:55:00,
2013-07-20 12:00:00,73.5,62.3,30.30,SSW,209,1.2,1.2,68,0.00,FEW,,0.00,755.0,WeatherDisplay:10.37,2013-07-20 11:00:00,
2013-07-20 12:05:00,74.6,63.8,30.30,SW,232,6.9,6.9,69,0.00,FEW,,0.00,765.0,WeatherDisplay:10.37,2013-07-20 11:05:00,
2013-07-20 12:10:00,74.6,62.1,30.30,SSW,203,4.6,4.6,65,0.00,FEW,,0.00,751.0,WeatherDisplay:10.37,2013-07-20 11:10:00,
2013-07-20 12:15:00,74.6,62.1,30.30,SSW,196,3.5,3.5,65,0.00,FEW,,0.00,762.0,WeatherDisplay:10.37,2013-07-20 11:15:00,
2013-07-20 12:20:00,75.1,63.0,30.29,SW,217,3.5,3.5,66,0.00,FEW,,0.00,767.0,WeatherDisplay:10.37,2013-07-20 11:20:00,
2013-07-20 12:25:00,75.3,62.7,30.29,SSW,199,5.8,5.8,65,0.00,FEW,,0.00,778.0,WeatherDisplay:10.37,2013-07-20 11:25:00,
2013-07-20 12:31:00,75.1,62.5,30.29,North,354,3.5,3.5,65,0.00,FEW,,0.00,781.0,WeatherDisplay:10.37,2013-07-20 11:31:00,
2013-07-20 12:36:00,75.6,63.4,30.29,SSW,202,6.0,6.0,66,0.00,FEW,,0.00,785.0,WeatherDisplay:10.37,2013-07-20 11:36:00,
2013-07-20 12:41:00,76.1,63.5,30.29,SW,230,4.0,4.0,65,0.00,FEW,,0.00,783.0,WeatherDisplay:10.37,2013-07-20 11:41:00,
2013-07-20 12:46:00,76.0,63.8,30.29,WSW,246,4.6,4.6,66,0.00,FEW,,0.00,794.0,WeatherDisplay:10.37,2013-07-20 11:46:00,
2013-07-20 12:51:00,75.4,61.9,30.29,SW,234,1.2,1.2,63,0.00,FEW,,0.00,794.0,WeatherDisplay:10.37,2013-07-20 11:51:00,
2013-07-20 12:56:00,75.6,62.1,30.29,SW,223,6.9,6.9,63,0.00,FEW,,0.00,802.0,WeatherDisplay:10.37,2013-07-20 11:56:00,
2013-07-20 13:02:00,76.5,63.4,30.28,SW,236,3.5,3.5,64,0.00,FEW,,0.00,799.0,WeatherDisplay:10.37,2013-07-20 12:02:00,
2013-07-20 13:07:00,76.8,63.2,30.28,SSW,205,7.0,7.0,63,0.00,FEW,,0.00,802.0,WeatherDisplay:10.37,2013-07-20 12:07:00,
2013-07-20 13:12:00,77.2,63.6,30.28,SSW,213,5.8,5.8,63,0.00,FEW,,0.00,806.0,WeatherDisplay:10.37,2013-07-20 12:12:00,
2013-07-20 13:17:00,77.7,63.6,30.28,SW,236,5.8,5.8,62,0.00,FEW,,0.00,797.0,WeatherDisplay:10.37,2013-07-20 12:17:00,
2013-07-20 13:22:00,78.1,63.6,30.27,WSW,250,3.5,3.5,61,0.00,FEW,,0.00,806.0,WeatherDisplay:10.37,2013-07-20 12:22:00,
2013-07-20 13:27:00,77.9,62.9,30.27,North,357,3.5,3.5,60,0.00,FEW,,0.00,804.0,WeatherDisplay:10.37,2013-07-20 12:27:00,
2013-07-20 13:32:00,78.1,64.0,30.27,WSW,248,4.6,4.6,62,0.00,FEW,,0.00,801.0,WeatherDisplay:10.37,2013-07-20 12:32:00,
2013-07-20 13:37:00,78.1,64.0,30.27,SW,219,4.6,4.6,62,0.00,FEW,,0.00,797.0,WeatherDisplay:10.37,2013-07-20 12:37:00,
2013-07-20 13:42:00,78.3,63.3,30.27,SW,232,3.5,3.5,60,0.00,FEW,,0.00,797.0,WeatherDisplay:10.37,2013-07-20 12:42:00,
2013-07-20 13:47:00,77.9,63.8,30.27,West,261,4.6,4.6,62,0.00,FEW,,0.00,804.0,WeatherDisplay:10.37,2013-07-20 12:47:00,
2013-07-20 13:53:00,78.6,63.6,30.27,SW,219,6.9,6.9,60,0.00,FEW,,0.00,801.0,WeatherDisplay:10.37,2013-07-20 12:53:00,
2013-07-20 13:58:00,78.3,63.3,30.27,SSW,205,3.5,3.5,60,0.00,FEW,,0.00,804.0,WeatherDisplay:10.37,2013-07-20 12:58:00,
2013-07-20 14:03:00,78.8,64.2,30.27,West,264,5.8,5.8,61,0.00,FEW,,0.00,809.0,WeatherDisplay:10.37,2013-07-20 13:03:00,
2013-07-20 14:08:00,79.2,64.1,30.26,SW,226,6.0,6.0,60,0.00,FEW,,0.00,815.0,WeatherDisplay:10.37,2013-07-20 13:08:00,
2013-07-20 14:13:00,79.9,64.3,30.26,West,260,6.0,6.0,59,0.00,FEW,,0.00,827.0,WeatherDisplay:10.37,2013-07-20 13:13:00,
2013-07-20 14:18:00,79.6,64.0,30.26,WSW,241,11.5,11.5,59,0.00,CLR,,0.00,846.0,WeatherDisplay:10.37,2013-07-20 13:18:00,
2013-07-20 14:23:00,79.4,63.8,30.26,North,359,3.5,3.5,59,0.00,FEW,,0.00,822.0,WeatherDisplay:10.37,2013-07-20 13:23:00,
2013-07-20 14:29:00,79.2,63.6,30.26,North,354,2.3,2.3,59,0.00,FEW,,0.00,827.0,WeatherDisplay:10.37,2013-07-20 13:29:00,
2013-07-20 14:34:00,79.6,64.5,30.26,SSW,200,4.0,4.0,60,0.00,CLR,,0.00,864.0,WeatherDisplay:10.37,2013-07-20 13:34:00,
2013-07-20 14:39:00,79.9,63.8,30.26,SW,224,7.0,7.0,58,0.00,CLR,,0.00,838.0,WeatherDisplay:10.37,2013-07-20 13:39:00,
2013-07-20 14:44:00,80.7,64.1,30.26,South,191,6.9,6.9,57,0.00,CLR,,0.00,848.0,WeatherDisplay:10.37,2013-07-20 13:44:00,
2013-07-20 14:50:00,80.7,64.1,30.25,WSW,256,8.1,8.1,57,0.00,FEW,,0.00,794.0,WeatherDisplay:10.37,2013-07-20 13:50:00,
2013-07-20 14:55:00,80.7,63.5,30.25,SW,229,3.5,3.5,56,0.00,CLR,,0.00,799.0,WeatherDisplay:10.37,2013-07-20 13:55:00,
2013-07-20 15:00:00,80.7,64.5,30.25,SSW,200,5.8,5.8,58,0.00,CLR,,0.00,802.0,WeatherDisplay:10.37,2013-07-20 14:00:00,
2013-07-20 15:05:00,79.9,63.3,30.25,SW,217,4.0,4.0,57,0.00,FEW,,0.00,781.0,WeatherDisplay:10.37,2013-07-20 14:05:00,
2013-07-20 15:10:00,80.5,63.9,30.25,SSW,208,3.5,3.5,57,0.00,FEW,,0.00,765.0,WeatherDisplay:10.37,2013-07-20 14:10:00,
2013-07-20 15:15:00,80.9,64.7,30.25,SW,222,8.0,8.0,58,0.00,CLR,,0.00,797.0,WeatherDisplay:10.37,2013-07-20 14:15:00,
2013-07-20 15:20:00,80.9,65.2,30.25,WSW,248,6.9,6.9,59,0.00,CLR,,0.00,790.0,WeatherDisplay:10.37,2013-07-20 14:20:00,
2013-07-20 15:25:00,81.2,65.5,30.25,WSW,240,8.1,8.1,59,0.00,CLR,,0.00,809.0,WeatherDisplay:10.37,2013-07-20 14:25:00,
2013-07-20 15:31:00,80.7,65.0,30.25,SW,222,7.0,7.0,59,0.00,CLR,,0.00,823.0,WeatherDisplay:10.37,2013-07-20 14:31:00,
2013-07-20 15:36:00,80.3,64.7,30.25,SW,216,1.2,1.2,59,0.00,CLR,,0.00,815.0,WeatherDisplay:10.37,2013-07-20 14:36:00,
2013-07-20 15:41:00,80.5,64.4,30.25,SSW,203,8.1,8.1,58,0.00,FEW,,0.00,700.0,WeatherDisplay:10.37,2013-07-20 14:41:00,
2013-07-20 15:46:00,80.7,64.5,30.25,SW,224,2.3,2.3,58,0.00,CLR,,0.00,716.0,WeatherDisplay:10.37,2013-07-20 14:46:00,
2013-07-20 15:51:00,80.5,64.4,30.25,SW,234,6.9,6.9,58,0.00,CLR,,0.00,734.0,WeatherDisplay:10.37,2013-07-20 14:51:00,
2013-07-20 15:56:00,80.7,64.5,30.25,SW,233,6.9,6.9,58,0.00,CLR,,0.00,794.0,WeatherDisplay:10.37,2013-07-20 14:56:00,
2013-07-20 16:02:00,79.8,64.7,30.25,SSW,196,8.1,8.1,60,0.00,CLR,,0.00,714.0,WeatherDisplay:10.37,2013-07-20 15:02:00,
2013-07-20 16:07:00,79.9,64.8,30.25,SSW,202,4.6,4.6,60,0.00,CLR,,0.00,677.0,WeatherDisplay:10.37,2013-07-20 15:07:00,
2013-07-20 16:12:00,80.1,64.5,30.25,WSW,250,3.5,3.5,59,0.00,CLR,,0.00,794.0,WeatherDisplay:10.37,2013-07-20 15:12:00,
2013-07-20 16:17:00,81.1,65.9,30.24,SSW,213,6.0,6.0,60,0.00,CLR,,0.00,721.0,WeatherDisplay:10.37,2013-07-20 15:17:00,
2013-07-20 16:22:00,80.9,65.2,30.24,SSW,196,2.3,2.3,59,0.00,CLR,,0.00,767.0,WeatherDisplay:10.37,2013-07-20 15:22:00,
2013-07-20 16:28:00,81.8,64.6,30.24,SW,234,6.9,6.9,56,0.00,CLR,,0.00,825.0,WeatherDisplay:10.37,2013-07-20 15:28:00,
2013-07-20 16:33:00,81.6,64.9,30.24,SSW,203,3.0,3.0,57,0.00,CLR,,0.00,792.0,WeatherDisplay:10.37,2013-07-20 15:33:00,
2013-07-20 16:38:00,82.6,65.3,30.24,SSW,213,5.8,5.8,56,0.00,CLR,,0.00,753.0,WeatherDisplay:10.37,2013-07-20 15:38:00,
2013-07-20 16:43:00,82.0,65.8,30.24,SSW,210,10.4,10.4,58,0.00,CLR,,0.00,633.0,WeatherDisplay:10.37,2013-07-20 15:43:00,
2013-07-20 16:48:00,81.2,64.5,30.24,South,178,3.5,3.5,57,0.00,CLR,,0.00,612.0,WeatherDisplay:10.37,2013-07-20 15:48:00,
2013-07-20 16:54:00,80.9,65.2,30.24,South,191,10.0,10.0,59,0.00,CLR,,0.00,646.0,WeatherDisplay:10.37,2013-07-20 15:54:00,
2013-07-20 16:59:00,80.5,65.3,30.24,SW,226,4.6,4.6,60,0.00,CLR,,0.00,598.0,WeatherDisplay:10.37,2013-07-20 15:59:00,
2013-07-20 17:04:00,80.9,64.7,30.24,South,179,5.8,5.8,58,0.00,CLR,,0.00,579.0,WeatherDisplay:10.37,2013-07-20 16:04:00,
2013-07-20 17:09:00,80.1,64.0,30.24,SSW,196,5.8,5.8,58,0.00,CLR,,0.00,560.0,WeatherDisplay:10.37,2013-07-20 16:09:00,
2013-07-20 17:14:00,80.1,64.0,30.24,SSW,196,6.9,6.9,58,0.00,CLR,,0.00,572.0,WeatherDisplay:10.37,2013-07-20 16:14:00,
2013-07-20 17:20:00,79.8,63.7,30.24,South,191,3.5,3.5,58,0.00,CLR,,0.00,544.0,WeatherDisplay:10.37,2013-07-20 16:20:00,
2013-07-20 17:25:00,79.9,63.8,30.23,SW,229,5.8,5.8,58,0.00,SCT,,0.00,368.0,WeatherDisplay:10.37,2013-07-20 16:25:00,
2013-07-20 17:30:00,80.1,64.5,30.23,SSW,193,5.8,5.8,59,0.00,CLR,,0.00,523.0,WeatherDisplay:10.37,2013-07-20 16:30:00,
2013-07-20 17:35:00,79.9,63.3,30.23,SSW,198,8.1,8.1,57,0.00,CLR,,0.00,514.0,WeatherDisplay:10.37,2013-07-20 16:35:00,
2013-07-20 17:41:00,79.8,63.7,30.23,SSW,209,6.9,6.9,58,0.00,CLR,,0.00,523.0,WeatherDisplay:10.37,2013-07-20 16:41:00,
2013-07-20 17:46:00,79.4,62.3,30.23,SSW,203,6.9,6.9,56,0.00,FEW,,0.00,442.0,WeatherDisplay:10.37,2013-07-20 16:46:00,
2013-07-20 17:51:00,78.8,62.3,30.23,North,356,4.6,4.6,57,0.00,BKN,,0.00,248.0,WeatherDisplay:10.37,2013-07-20 16:51:00,
2013-07-20 17:56:00,77.4,61.0,30.23,SW,236,5.8,5.8,57,0.00,OVC,,0.00,134.0,WeatherDisplay:10.37,2013-07-20 16:56:00,
2013-07-20 18:02:00,76.5,61.1,30.23,WSW,240,8.1,8.1,59,0.00,OVC,,0.00,148.0,WeatherDisplay:10.37,2013-07-20 17:02:00,
2013-07-20 18:07:00,76.5,61.1,30.23,SW,233,5.0,5.0,59,0.00,BKN,,0.00,187.0,WeatherDisplay:10.37,2013-07-20 17:07:00,
2013-07-20 18:12:00,77.4,61.9,30.23,SW,224,4.6,4.6,59,0.00,CLR,,0.00,468.0,WeatherDisplay:10.37,2013-07-20 17:12:00,
2013-07-20 18:17:00,77.7,61.3,30.23,SSW,213,3.5,3.5,57,0.00,CLR,,0.00,158.0,WeatherDisplay:10.37,2013-07-20 17:17:00,
2013-07-20 18:22:00,77.6,61.7,30.23,WSW,251,5.8,5.8,58,0.00,CLR,,0.00,408.0,WeatherDisplay:10.37,2013-07-20 17:22:00,
2013-07-20 18:27:00,76.8,61.9,30.23,SSW,208,5.8,5.8,60,0.00,BKN,,0.00,160.0,WeatherDisplay:10.37,2013-07-20 17:27:00,
2013-07-20 18:32:00,76.3,62.3,30.23,WSW,243,4.6,4.6,62,0.00,BKN,,0.00,143.0,WeatherDisplay:10.37,2013-07-20 17:32:00,
2013-07-20 18:37:00,76.1,63.0,30.23,SW,217,4.0,4.0,64,0.00,BKN,,0.00,128.0,WeatherDisplay:10.37,2013-07-20 17:37:00,
2013-07-20 18:42:00,76.0,62.0,30.23,SW,219,9.2,9.2,62,0.00,BKN,,0.00,160.0,WeatherDisplay:10.37,2013-07-20 17:42:00,
2013-07-20 18:47:00,76.1,62.6,30.23,SSW,200,4.6,4.6,63,0.00,BKN,,0.00,141.0,WeatherDisplay:10.37,2013-07-20 17:47:00,
2013-07-20 18:52:00,76.0,63.4,30.23,SSW,202,4.6,4.6,65,0.00,BKN,,0.00,153.0,WeatherDisplay:10.37,2013-07-20 17:52:00,
2013-07-20 18:58:00,75.8,63.6,30.23,SSW,209,4.6,4.6,66,0.00,BKN,,0.00,158.0,WeatherDisplay:10.37,2013-07-20 17:58:00,
2013-07-20 19:03:00,75.8,63.2,30.23,South,181,5.8,5.8,65,0.00,SCT,,0.00,280.0,WeatherDisplay:10.37,2013-07-20 18:03:00,
2013-07-20 19:08:00,76.0,63.4,30.23,SW,232,6.9,6.9,65,0.00,BKN,,0.00,139.0,WeatherDisplay:10.37,2013-07-20 18:08:00,
2013-07-20 19:13:00,75.8,63.6,30.23,SW,217,5.8,5.8,66,0.00,SCT,,0.00,153.0,WeatherDisplay:10.37,2013-07-20 18:13:00,
2013-07-20 19:19:00,75.4,63.7,30.23,SW,229,5.8,5.8,67,0.00,FEW,,0.00,192.0,WeatherDisplay:10.37,2013-07-20 18:19:00,
2013-07-20 19:24:00,75.8,63.6,30.23,SW,222,8.1,8.1,66,0.00,CLR,,0.00,266.0,WeatherDisplay:10.37,2013-07-20 18:24:00,
2013-07-20 19:29:00,76.1,63.0,30.23,South,191,5.8,5.8,64,0.00,CLR,,0.00,253.0,WeatherDisplay:10.37,2013-07-20 18:29:00,
2013-07-20 19:35:00,76.3,63.2,30.23,SSW,212,5.8,5.8,64,0.00,FEW,,0.00,192.0,WeatherDisplay:10.37,2013-07-20 18:35:00,
2013-07-20 19:41:00,76.1,63.5,30.23,SW,226,5.8,5.8,65,0.00,CLR,,0.00,208.0,WeatherDisplay:10.37,2013-07-20 18:41:00,
2013-07-20 19:46:00,76.1,63.5,30.23,SW,234,6.9,6.9,65,0.00,FEW,,0.00,121.0,WeatherDisplay:10.37,2013-07-20 18:46:00,
2013-07-20 19:51:00,76.0,63.4,30.23,SW,223,11.5,11.5,65,0.00,CLR,,0.00,181.0,WeatherDisplay:10.37,2013-07-20 18:51:00,
2013-07-20 19:57:00,75.6,63.0,30.23,SSW,209,3.5,3.5,65,0.00,CLR,,0.00,167.0,WeatherDisplay:10.37,2013-07-20 18:57:00,
2013-07-20 20:02:00,75.3,62.7,30.23,SSW,213,3.5,3.6,65,0.00,CLR,,0.00,185.0,WeatherDisplay:10.37,2013-07-20 19:02:00,
2013-07-20 20:07:00,74.9,62.3,30.22,SSW,212,6.9,6.9,65,0.00,CLR,,0.00,176.0,WeatherDisplay:10.37,2013-07-20 19:07:00,
2013-07-20 20:12:00,74.6,62.1,30.23,SSW,210,6.9,6.9,65,0.00,CLR,,0.00,165.0,WeatherDisplay:10.37,2013-07-20 19:12:00,
2013-07-20 20:17:00,74.2,62.1,30.23,South,186,6.9,6.9,66,0.00,CLR,,0.00,153.0,WeatherDisplay:10.37,2013-07-20 19:17:00,
2013-07-20 20:22:00,73.7,61.6,30.23,SSW,200,6.9,6.9,66,0.00,CLR,,0.00,141.0,WeatherDisplay:10.37,2013-07-20 19:22:00,
2013-07-20 20:27:00,73.2,61.6,30.23,SW,220,5.8,5.8,67,0.00,CLR,,0.00,128.0,WeatherDisplay:10.37,2013-07-20 19:27:00,
2013-07-20 20:32:00,72.8,61.2,30.23,SW,220,6.0,6.0,67,0.00,CLR,,0.00,116.0,WeatherDisplay:10.37,2013-07-20 19:32:00,
2013-07-20 20:37:00,72.5,61.3,30.23,SW,224,5.8,5.8,68,0.00,SCT,,0.00,55.0,WeatherDisplay:10.37,2013-07-20 19:37:00,
2013-07-20 20:42:00,72.1,61.0,30.23,SSW,209,6.9,6.9,68,0.00,SCT,,0.00,55.0,WeatherDisplay:10.37,2013-07-20 19:42:00,
2013-07-20 20:47:00,71.8,61.1,30.23,SSW,208,3.5,3.5,69,0.00,CLR,,0.00,83.0,WeatherDisplay:10.37,2013-07-20 19:47:00,
2013-07-20 20:53:00,71.6,60.9,30.23,SW,233,5.8,5.8,69,0.00,CLR,,0.00,55.0,WeatherDisplay:10.37,2013-07-20 19:53:00,
2013-07-20 20:58:00,71.3,61.0,30.23,SSW,200,4.6,4.6,70,0.00,SCT,,0.00,39.0,WeatherDisplay:10.37,2013-07-20 19:58:00,
2013-07-20 21:03:00,70.9,60.6,30.23,SW,222,5.8,5.8,70,0.00,SCT,,0.00,33.0,WeatherDisplay:10.37,2013-07-20 20:03:00,
2013-07-20 21:08:00,70.6,60.3,30.23,South,182,4.6,4.6,70,0.00,SCT,,0.00,30.0,WeatherDisplay:10.37,2013-07-20 20:08:00,
2013-07-20 21:14:00,70.1,60.3,30.24,SW,216,6.0,6.0,71,0.00,FEW,,0.00,28.0,WeatherDisplay:10.37,2013-07-20 20:14:00,
2013-07-20 21:19:00,69.9,60.1,30.24,SW,232,5.0,5.0,71,0.00,CLR,,0.00,25.0,WeatherDisplay:10.37,2013-07-20 20:19:00,
2013-07-20 21:24:00,69.6,60.2,30.24,WSW,254,6.9,6.9,72,0.00,CLR,,0.00,21.0,WeatherDisplay:10.37,2013-07-20 20:24:00,
2013-07-20 21:29:00,69.3,59.9,30.24,SW,232,5.8,5.8,72,0.00,CLR,,0.00,16.0,WeatherDisplay:10.37,2013-07-20 20:29:00,
2013-07-20 21:34:00,68.9,59.9,30.24,SW,234,3.5,3.5,73,0.00,CLR,,0.00,14.0,WeatherDisplay:10.37,2013-07-20 20:34:00,
2013-07-20 21:40:00,68.6,60.0,30.24,SW,233,3.5,3.5,74,0.00,OVC,,0.00,12.0,WeatherDisplay:10.37,2013-07-20 20:40:00,
2013-07-20 21:45:00,68.4,59.8,30.24,SW,226,2.0,6.0,74,0.00,OVC,,0.00,11.0,WeatherDisplay:10.37,2013-07-20 20:45:00,
2013-07-20 21:50:00,67.9,59.7,30.24,SSW,210,2.3,2.3,75,0.00,OVC,,0.00,9.0,WeatherDisplay:10.37,2013-07-20 20:50:00,
2013-07-20 21:55:00,67.6,59.4,30.25,SW,216,3.5,3.5,75,0.00,OVC,,0.00,9.0,WeatherDisplay:10.37,2013-07-20 20:55:00,
2013-07-20 22:00:00,67.3,59.5,30.25,SSW,205,3.5,3.5,76,0.00,CLR,,0.00,7.0,WeatherDisplay:10.37,2013-07-20 21:00:00,
2013-07-20 22:06:00,66.8,59.0,30.25,SSW,208,5.8,5.8,76,0.00,CLR,,0.00,0.0,WeatherDisplay:10.37,2013-07-20 21:06:00,
2013-07-20 22:11:00,66.3,58.9,30.25,SSW,203,3.0,3.0,77,0.00,CLR,,0.00,0.0,WeatherDisplay:10.37,2013-07-20 21:11:00,
2013-07-20 22:16:00,66.0,58.6,30.25,SW,230,4.6,4.6,77,0.00,CLR,,0.00,0.0,WeatherDisplay:10.37,2013-07-20 21:16:00,
2013-07-20 22:22:00,65.6,58.2,30.25,SW,220,4.6,4.6,77,0.00,CLR,,0.00,0.0,WeatherDisplay:10.37,2013-07-20 21:22:00,
2013-07-20 22:27:00,65.2,58.2,30.25,SW,224,4.6,4.6,78,0.00,CLR,,0.00,0.0,WeatherDisplay:10.37,2013-07-20 21:27:00,
2013-07-20 22:32:00,64.7,57.7,30.25,SSW,212,4.6,4.6,78,0.00,CLR,,0.00,0.0,WeatherDisplay:10.37,2013-07-20 21:32:00,
2013-07-20 22:37:00,64.2,57.5,30.25,SW,219,3.5,3.5,79,0.00,CLR,,0.00,0.0,WeatherDisplay:10.37,2013-07-20 21:37:00,
2013-07-20 22:42:00,63.9,57.6,30.25,SW,232,3.5,3.5,80,0.00,CLR,,0.00,0.0,WeatherDisplay:10.37,2013-07-20 21:42:00,
2013-07-20 22:48:00,63.5,57.2,30.25,North,359,4.6,4.6,80,0.00,CLR,,0.00,0.0,WeatherDisplay:10.37,2013-07-20 21:48:00,
2013-07-20 22:53:00,63.1,57.2,30.25,SW,216,3.5,3.5,81,0.00,CLR,,0.00,0.0,WeatherDisplay:10.37,2013-07-20 21:53:00,
2013-07-20 22:58:00,62.6,57.0,30.25,WSW,240,4.6,4.6,82,0.00,CLR,,0.00,0.0,WeatherDisplay:10.37,2013-07-20 21:58:00,
2013-07-20 23:03:00,62.3,56.7,30.25,WSW,247,3.5,3.5,82,0.00,CLR,,0.00,0.0,WeatherDisplay:10.37,2013-07-20 22:03:00,
2013-07-20 23:08:00,62.0,56.8,30.25,SW,216,5.8,5.8,83,0.00,CLR,,0.00,0.0,WeatherDisplay:10.37,2013-07-20 22:08:00,
2013-07-20 23:14:00,61.6,56.7,30.25,SSW,198,3.5,3.5,84,0.00,CLR,,0.00,0.0,WeatherDisplay:10.37,2013-07-20 22:14:00,
2013-07-20 23:20:00,61.3,56.4,30.26,SW,223,4.6,4.6,84,0.00,CLR,,0.00,0.0,WeatherDisplay:10.37,2013-07-20 22:20:00,
2013-07-20 23:25:00,61.0,56.5,30.26,SSW,206,4.6,4.6,85,0.00,CLR,,0.00,0.0,WeatherDisplay:10.37,2013-07-20 22:25:00,
2013-07-20 23:30:00,60.7,56.2,30.26,SSW,213,3.5,3.5,85,0.00,CLR,,0.00,0.0,WeatherDisplay:10.37,2013-07-20 22:30:00,
2013-07-20 23:35:00,60.5,56.3,30.26,SSW,209,3.5,3.5,86,0.00,CLR,,0.00,0.0,WeatherDisplay:10.37,2013-07-20 22:35:00,
2013-07-20 23:40:00,60.2,56.0,30.26,SSW,213,3.5,3.5,86,0.00,CLR,,0.00,0.0,WeatherDisplay:10.37,2013-07-20 22:40:00,
2013-07-20 23:46:00,60.1,55.9,30.26,SW,230,3.5,3.5,86,0.00,CLR,,0.00,0.0,WeatherDisplay:10.37,2013-07-20 22:46:00,
2013-07-20 23:51:00,59.9,56.0,30.26,SW,219,4.6,4.6,87,0.00,CLR,,0.00,0.0,WeatherDisplay:10.37,2013-07-20 22:51:00,
2013-07-20 23:56:00,59.8,55.9,30.26,SW,215,5.8,5.8,87,0.00,CLR,,0.00,0.0,WeatherDisplay:10.37,2013-07-20 22:56:00,